"startDT [UTC]","vpos","CH4 [ppm]","stdev(CH4) [ppm]","CO2 [ppm]","stdev(CO2) [ppm]","H2O [ppm]","stdev(H2O)","p_LGR [torr]","T_LGR [C]","mt1_LGR [us]","mt2_LGR [us]","T_ECpre [C]","T_EC1 [C]","T_EC2 [C]","p_inlet [hPa]","p_in [hPa]","p_out [hPa]","T_inlet [C]","RH_inlet [%]","dwpt_inlet [C]","T_vent [C]","RH_vent [%]","dwpt_vent [C]","flow_vent [l min-1]","flow_inlet [l min-1]","dwpt_sample [C]","T_room [C]"
2012-08-11 00:00:00,0.0,1.8993,0.0013,379.15,0.36,343.6,26.6,137.95,36.24,24.65,36.48,0.98,17.59,-25.43,-53,561,-930,31.4,20.6,6.2,31.3,1.0,-31.2,5.73,2.27,-25.7,34.7
2012-08-11 00:01:00,0.0,1.9007,0.0011,378.76,0.46,341.3,28.5,137.95,36.25,24.65,36.48,0.97,17.65,-25.43,-53,561,-931,31.4,21.2,6.5,31.3,1.0,-31.2,5.73,2.30,-25.7,34.7
2012-08-11 00:02:00,0.0,1.9001,0.0011,378.99,0.40,344.1,28.6,137.95,36.25,24.65,36.48,0.98,17.71,-25.42,-53,561,-931,31.4,20.6,6.2,31.3,1.0,-31.2,5.73,2.29,-25.7,34.7
2012-08-11 00:03:00,0.0,1.8979,0.0012,379.61,0.52,342.9,30.1,137.96,36.25,24.65,36.48,0.99,17.77,-25.42,-53,561,-930,31.4,19.9,5.6,31.3,1.0,-31.2,5.73,2.28,-25.7,34.7
2012-08-11 00:04:00,0.0,1.8958,0.0010,379.85,0.36,339.3,26.6,137.95,36.26,24.65,36.48,0.99,17.82,-25.42,-53,561,-931,31.4,19.6,5.4,31.4,1.0,-31.2,5.73,2.31,-25.7,34.7
2012-08-11 00:05:00,0.0,1.8972,0.0011,379.80,0.38,337.8,27.6,137.95,36.26,24.65,36.49,1.00,17.87,-25.42,-53,561,-930,31.4,19.9,5.7,31.4,1.0,-31.1,5.73,2.28,-25.7,34.8
2012-08-11 00:06:00,0.0,1.8975,0.0018,379.75,0.42,347.0,25.8,137.95,36.27,24.66,36.48,0.99,17.93,-25.41,-53,561,-931,31.4,19.9,5.7,31.4,1.0,-31.1,5.73,2.28,-25.7,34.8
2012-08-11 00:07:00,0.0,1.8988,0.0016,379.18,0.43,343.6,28.5,137.96,36.27,24.66,36.48,0.99,17.97,-25.42,-53,561,-930,31.4,20.8,6.3,31.4,1.0,-31.2,5.73,2.31,-25.7,34.7
2012-08-11 00:08:00,0.0,1.9000,0.0010,379.29,0.35,353.7,32.5,137.95,36.27,24.65,36.49,0.99,18.02,-25.41,-53,561,-931,31.5,20.4,6.1,31.4,1.0,-31.1,5.73,2.27,-25.7,34.7
2012-08-11 00:09:00,0.0,1.8983,0.0013,379.64,0.44,348.6,22.8,137.95,36.27,24.66,36.48,0.99,18.07,-25.41,-53,561,-931,31.4,19.8,5.6,31.4,1.0,-31.2,5.73,2.29,-25.7,34.7
2012-08-11 00:10:00,0.0,1.8985,0.0010,379.74,0.42,343.3,28.6,137.95,36.27,24.65,36.48,0.97,18.11,-25.41,-53,561,-930,31.4,20.3,6.0,31.4,1.0,-31.2,5.73,2.30,-25.7,34.7
2012-08-11 00:11:00,0.0,1.8984,0.0008,379.51,0.43,341.8,30.7,137.95,36.26,24.65,36.48,0.97,18.15,-25.40,-53,561,-931,31.4,19.9,5.7,31.4,1.0,-31.1,5.73,2.27,-25.7,34.8
2012-08-11 00:12:00,0.0,1.8991,0.0010,379.62,0.27,345.9,32.1,137.95,36.27,24.65,36.48,0.96,18.19,-25.40,-53,561,-930,31.5,20.1,5.9,31.4,1.0,-31.2,5.73,2.30,-25.7,34.8
2012-08-11 00:13:00,0.0,1.8975,0.0011,379.60,0.34,340.3,31.1,137.95,36.27,24.65,36.48,0.96,18.23,-25.40,-53,561,-931,31.5,20.1,5.8,31.4,1.0,-31.1,5.73,2.29,-25.7,34.7
2012-08-11 00:14:00,0.0,1.8967,0.0013,379.94,0.37,340.4,25.6,137.95,36.27,24.65,36.47,0.96,18.27,-25.40,-53,561,-931,31.4,19.8,5.6,31.4,1.0,-31.1,5.73,2.27,-25.7,34.7
2012-08-11 00:15:00,0.0,1.8983,0.0009,379.66,0.32,343.1,27.7,137.95,36.27,24.65,36.48,0.95,18.30,-25.40,-53,561,-930,31.5,20.0,5.8,31.4,1.0,-31.1,5.73,2.31,-25.7,34.7
2012-08-11 00:16:00,0.0,1.8956,0.0010,380.03,0.35,347.7,26.3,137.95,36.27,24.65,36.47,0.97,18.33,-25.40,-53,561,-931,31.5,19.7,5.6,31.4,1.0,-31.1,5.73,2.27,-25.7,34.7
2012-08-11 00:17:00,0.0,1.8952,0.0009,379.93,0.36,340.9,30.4,137.95,36.27,24.65,36.48,0.97,18.37,-25.40,-53,561,-930,31.5,19.5,5.4,31.4,1.0,-31.1,5.73,2.28,-25.7,34.7
2012-08-11 00:18:00,0.0,1.8964,0.0012,379.65,0.37,350.2,33.5,137.95,36.27,24.65,36.49,0.97,18.39,-25.40,-53,561,-931,31.5,19.8,5.7,31.4,1.0,-31.1,5.73,2.30,-25.7,34.7
2012-08-11 00:19:00,0.0,1.8961,0.0013,379.94,0.32,352.2,28.9,137.95,36.28,24.65,36.48,0.97,18.42,-25.40,-53,561,-931,31.5,19.4,5.3,31.4,1.0,-31.1,5.73,2.27,-25.7,34.8
2012-08-11 00:20:00,0.0,1.8945,0.0016,379.98,0.29,336.3,29.6,137.95,36.27,24.66,36.48,0.99,18.45,-25.40,-53,561,-930,31.5,19.7,5.6,31.4,1.0,-31.1,5.73,2.29,-25.7,34.7
2012-08-11 00:21:00,0.0,1.8961,0.0013,379.80,0.38,343.9,24.8,137.95,36.28,24.65,36.48,0.99,18.48,-25.39,-53,561,-931,31.5,19.7,5.6,31.4,1.0,-31.1,5.73,2.29,-25.7,34.7
2012-08-11 00:22:00,0.0,1.8991,0.0016,379.48,0.32,341.0,29.2,137.95,36.28,24.65,36.47,0.99,18.51,-25.39,-53,561,-930,31.5,20.2,5.9,31.4,1.0,-31.1,5.73,2.26,-25.7,34.8
2012-08-11 00:23:00,0.0,1.8962,0.0013,379.81,0.41,343.7,29.5,137.95,36.28,24.65,36.48,1.00,18.53,-25.39,-53,561,-931,31.5,19.5,5.4,31.4,1.0,-31.1,5.73,2.30,-25.7,34.8
2012-08-11 00:24:00,0.0,1.8960,0.0011,380.05,0.38,347.4,25.0,137.95,36.29,24.65,36.48,1.01,18.56,-25.39,-53,561,-931,31.5,19.5,5.4,31.4,1.0,-31.1,5.73,2.28,-25.7,34.8
2012-08-11 00:25:00,0.0,1.8955,0.0012,380.07,0.35,347.5,25.1,137.95,36.29,24.65,36.48,1.01,18.58,-25.39,-53,561,-930,31.5,19.3,5.3,31.4,1.0,-31.1,5.73,2.27,-25.7,34.8
2012-08-11 00:26:00,0.0,1.8953,0.0012,380.02,0.32,349.9,27.7,137.95,36.30,24.65,36.48,0.99,18.60,-25.38,-53,561,-931,31.5,19.4,5.3,31.4,1.0,-31.1,5.73,2.30,-25.7,34.7
2012-08-11 00:27:00,0.0,1.8955,0.0012,380.08,0.30,348.6,28.9,137.95,36.31,24.65,36.48,0.99,18.62,-25.39,-53,561,-930,31.5,19.5,5.4,31.4,1.0,-31.1,5.73,2.27,-25.7,34.8
2012-08-11 00:28:00,0.0,1.8952,0.0010,380.04,0.35,355.5,27.1,137.95,36.31,24.66,36.48,0.98,18.64,-25.39,-53,561,-930,31.5,19.5,5.5,31.4,1.0,-31.1,5.73,2.29,-25.7,34.8
2012-08-11 00:29:00,0.0,1.8957,0.0013,380.17,0.28,347.1,29.2,137.95,36.31,24.65,36.48,0.97,18.66,-25.38,-53,561,-931,31.5,19.2,5.2,31.4,1.0,-31.1,5.73,2.29,-25.7,34.8
2012-08-11 00:30:00,0.0,1.8974,0.0020,379.98,0.36,342.7,31.9,137.95,36.31,24.65,36.49,0.97,18.69,-25.38,-53,561,-930,31.5,19.6,5.6,31.4,1.0,-31.2,5.73,2.26,-25.7,34.8
2012-08-11 00:31:00,0.0,1.8984,0.0013,379.79,0.32,345.1,25.7,137.95,36.31,24.65,36.48,0.97,18.70,-25.38,-53,561,-931,31.5,19.6,5.5,31.5,1.0,-31.1,5.73,2.30,-25.7,34.8
2012-08-11 00:32:00,0.0,1.8972,0.0012,379.95,0.35,346.3,26.9,137.95,36.31,24.65,36.47,0.96,18.73,-25.37,-53,561,-931,31.6,19.5,5.5,31.5,1.0,-31.1,5.73,2.28,-25.7,34.8
2012-08-11 00:33:00,0.0,1.8966,0.0010,380.15,0.35,350.3,23.7,137.95,36.31,24.65,36.48,0.97,18.73,-25.38,-53,561,-930,31.5,19.3,5.3,31.5,1.0,-31.0,5.73,2.27,-25.7,34.8
2012-08-11 00:34:00,0.0,1.8963,0.0011,380.08,0.30,345.3,22.6,137.95,36.31,24.65,36.48,0.97,18.75,-25.38,-53,561,-931,31.5,19.4,5.4,31.4,1.0,-31.1,5.73,2.30,-25.7,34.8
2012-08-11 00:35:00,0.0,1.8980,0.0023,379.86,0.42,343.2,25.7,137.95,36.31,24.65,36.48,0.97,18.77,-25.38,-53,561,-931,31.5,19.9,5.8,31.5,1.0,-31.1,5.73,2.27,-25.7,34.8
2012-08-11 00:36:00,0.0,1.8990,0.0020,379.50,0.29,350.8,27.2,137.95,36.31,24.65,36.49,0.98,18.79,-25.37,-53,561,-930,31.5,20.1,5.9,31.5,1.0,-31.1,5.73,2.29,-25.7,34.9
2012-08-11 00:37:00,0.0,1.8961,0.0009,379.90,0.33,345.2,25.2,137.95,36.32,24.65,36.48,1.03,18.76,-25.37,-53,561,-931,31.5,19.8,5.7,31.5,1.0,-31.1,5.73,2.29,-25.7,34.9
2012-08-11 00:38:00,0.0,1.8968,0.0009,379.88,0.28,349.7,30.8,137.95,36.32,24.65,36.48,1.20,17.68,-25.37,-53,561,-930,31.5,19.8,5.7,31.5,1.0,-31.1,5.73,2.26,-25.7,34.8
2012-08-11 00:39:00,0.0,1.8984,0.0014,379.68,0.33,346.0,27.1,137.95,36.32,24.65,36.48,1.14,15.55,-25.37,-53,561,-931,31.5,20.0,5.9,31.5,1.0,-31.0,5.73,2.30,-25.6,34.9
2012-08-11 00:40:00,0.0,1.8966,0.0012,380.02,0.39,351.8,28.5,137.95,36.33,24.65,36.48,1.04,13.20,-25.38,-53,561,-930,31.5,19.5,5.5,31.5,1.0,-31.1,5.73,2.28,-25.7,34.9
2012-08-11 00:41:00,0.0,1.8966,0.0011,379.86,0.34,350.2,26.6,137.95,36.33,24.65,36.49,1.05,10.85,-25.39,-53,561,-930,31.6,19.9,5.8,31.5,1.0,-31.1,5.73,2.27,-25.7,34.9
2012-08-11 00:42:00,0.0,1.8972,0.0011,379.84,0.31,350.9,24.6,137.95,36.33,24.65,36.48,1.04,8.60,-25.40,-53,561,-931,31.5,19.8,5.7,31.5,1.0,-31.1,5.73,2.30,-25.7,34.8
2012-08-11 00:43:00,0.0,1.8972,0.0010,379.85,0.34,354.9,30.4,137.95,36.33,24.65,36.47,1.03,6.45,-25.40,-53,561,-930,31.6,20.1,5.9,31.5,1.0,-31.0,5.73,2.26,-25.7,34.8
2012-08-11 00:44:00,0.0,1.8962,0.0012,380.14,0.45,353.2,29.5,137.95,36.33,24.65,36.48,1.12,4.41,-25.38,-53,561,-931,31.6,19.4,5.4,31.5,1.0,-31.1,5.73,2.28,-25.7,34.9
2012-08-11 00:45:00,0.0,1.8974,0.0010,379.91,0.37,357.8,26.3,137.95,36.34,24.65,36.48,1.10,2.47,-25.37,-53,562,-931,31.6,20.1,5.9,31.5,1.0,-31.1,5.73,2.29,-25.7,34.9
2012-08-11 00:46:00,0.0,1.8990,0.0010,379.49,0.33,338.6,33.0,137.95,36.34,24.65,36.48,1.02,0.63,-25.36,-53,561,-930,31.6,20.3,6.1,31.5,1.0,-31.1,5.73,2.26,-25.7,34.8
2012-08-11 00:47:00,0.0,1.8980,0.0010,379.63,0.32,350.3,31.6,137.95,36.34,24.65,36.48,1.11,-1.11,-25.34,-53,562,-931,31.6,20.2,6.0,31.5,1.0,-31.1,5.73,2.30,-25.7,34.8
2012-08-11 00:48:00,0.0,1.8972,0.0011,379.75,0.29,357.5,21.3,137.95,36.34,24.66,36.49,1.11,-2.74,-25.33,-53,562,-931,31.6,19.8,5.7,31.5,1.0,-31.1,5.73,2.27,-25.7,34.9
2012-08-11 00:49:00,0.0,1.8961,0.0010,380.20,0.29,347.6,29.1,137.95,36.35,24.65,36.47,1.02,-4.16,-25.31,-53,562,-930,31.6,19.6,5.6,31.5,1.0,-31.1,5.73,2.27,-25.7,34.8
2012-08-11 00:50:00,0.0,1.8960,0.0010,379.88,0.36,350.4,28.7,137.95,36.35,24.65,36.48,1.09,-5.15,-25.29,-53,562,-931,31.6,20.1,5.9,31.5,1.0,-31.1,5.73,2.30,-25.7,34.8
2012-08-11 00:51:00,0.0,1.8963,0.0011,379.88,0.33,354.5,25.4,137.95,36.35,24.65,36.49,1.12,-5.91,-25.28,-53,562,-931,31.6,19.8,5.7,31.5,1.0,-31.1,5.73,2.26,-25.7,34.8
2012-08-11 00:52:00,0.0,1.8973,0.0013,379.98,0.32,356.4,28.7,137.95,36.35,24.65,36.48,1.04,-7.10,-25.27,-53,562,-930,31.7,19.9,5.8,31.6,1.0,-31.1,5.73,2.28,-25.7,34.9
2012-08-11 00:53:00,0.0,1.8978,0.0011,379.78,0.37,344.1,29.0,137.95,36.35,24.65,36.48,1.05,-8.61,-25.26,-53,562,-931,31.7,20.2,6.1,31.6,1.0,-31.0,5.73,2.28,-25.7,34.8
2012-08-11 00:54:00,0.0,1.8959,0.0015,380.04,0.39,355.3,25.8,137.95,36.36,24.65,36.49,1.12,-9.84,-25.26,-53,562,-931,31.7,19.4,5.5,31.6,1.0,-31.1,5.73,2.26,-25.7,34.9
2012-08-11 00:55:00,0.0,1.8947,0.0009,380.06,0.36,351.8,30.3,137.95,36.36,24.65,36.48,1.08,-10.97,-25.25,-53,562,-930,31.7,19.9,5.8,31.6,1.0,-31.0,5.73,2.30,-25.7,34.9
2012-08-11 00:56:00,0.0,1.8947,0.0008,380.03,0.37,353.2,30.1,137.95,36.36,24.65,36.48,1.02,-12.00,-25.24,-53,562,-931,31.7,20.0,5.9,31.6,1.0,-31.0,5.73,2.26,-25.7,34.9
2012-08-11 00:57:00,0.0,1.8951,0.0009,380.15,0.34,357.8,32.4,137.95,36.37,24.65,36.48,1.09,-12.96,-25.25,-53,562,-931,31.7,19.9,5.9,31.6,1.0,-31.1,5.73,2.27,-25.7,34.9
2012-08-11 00:58:00,0.0,1.8946,0.0008,380.31,0.29,354.3,27.8,137.95,36.38,24.65,36.47,1.11,-13.91,-25.24,-53,562,-930,31.7,19.7,5.7,31.6,1.0,-31.0,5.73,2.29,-25.7,34.9
2012-08-11 00:59:00,0.0,1.8947,0.0009,380.21,0.37,346.4,26.4,137.95,36.38,24.65,36.48,1.03,-14.79,-25.24,-53,562,-931,31.7,19.6,5.7,31.6,1.0,-31.1,5.73,2.26,-25.7,34.8
2012-08-11 01:00:00,0.0,1.8952,0.0011,380.21,0.30,358.6,31.7,137.95,36.39,24.65,36.48,1.03,-15.59,-25.24,-53,562,-931,31.7,19.5,5.6,31.6,1.0,-31.0,5.73,2.29,-25.6,34.9
2012-08-11 01:01:00,0.0,1.8951,0.0009,380.28,0.42,359.5,30.4,137.95,36.40,24.65,36.48,1.11,-16.37,-25.24,-53,562,-930,31.7,19.6,5.7,31.6,1.0,-31.0,5.73,2.27,-25.6,34.9
2012-08-11 01:02:00,0.0,1.8958,0.0013,379.89,0.31,353.1,25.7,137.95,36.40,24.65,36.48,1.09,-17.07,-25.25,-53,562,-931,31.7,20.0,5.9,31.6,1.0,-31.0,5.73,2.27,-25.7,34.9
2012-08-11 01:03:00,0.0,1.8959,0.0010,380.10,0.27,355.9,28.2,137.95,36.40,24.65,36.48,1.01,-17.76,-25.25,-53,562,-931,31.7,19.5,5.6,31.6,1.0,-31.0,5.73,2.29,-25.6,35.0
2012-08-11 01:04:00,0.0,1.8959,0.0009,380.29,0.32,356.8,26.5,137.95,36.41,24.65,36.48,1.03,-18.40,-25.25,-53,562,-930,31.7,19.7,5.7,31.6,1.0,-31.0,5.73,2.25,-25.7,34.9
2012-08-11 01:05:00,0.0,1.8962,0.0010,380.26,0.33,358.8,22.8,137.95,36.41,24.65,36.48,1.10,-18.99,-25.26,-53,562,-931,31.7,19.4,5.5,31.6,1.0,-31.1,5.73,2.29,-25.6,35.0
2012-08-11 01:06:00,0.0,1.8962,0.0010,380.43,0.31,358.5,26.6,137.95,36.41,24.65,36.49,1.10,-19.56,-25.26,-53,562,-931,31.7,19.3,5.5,31.6,1.0,-31.0,5.73,2.27,-25.6,35.0
2012-08-11 01:07:00,0.0,1.8962,0.0008,380.17,0.35,357.6,24.7,137.95,36.41,24.65,36.48,1.01,-20.09,-25.27,-53,562,-930,31.7,19.7,5.8,31.6,1.0,-31.0,5.73,2.26,-25.7,35.0
2012-08-11 01:08:00,0.0,1.8961,0.0011,380.36,0.29,350.4,27.7,137.95,36.41,24.65,36.48,1.03,-20.59,-25.28,-53,562,-931,31.7,19.6,5.7,31.6,1.0,-31.0,5.73,2.29,-25.7,35.0
2012-08-11 01:09:00,0.0,1.8957,0.0008,380.10,0.37,354.9,34.1,137.95,36.41,24.65,36.48,1.09,-21.08,-25.29,-53,562,-931,31.7,19.7,5.8,31.6,1.0,-31.1,5.73,2.25,-25.6,35.0
2012-08-11 01:10:00,0.0,1.8960,0.0013,380.24,0.33,366.7,28.4,137.95,36.42,24.65,36.48,1.10,-21.54,-25.30,-53,562,-930,31.7,19.4,5.5,31.7,1.0,-30.9,5.73,2.28,-25.6,35.0
2012-08-11 01:11:00,0.0,1.8955,0.0009,380.10,0.36,350.4,29.0,137.95,36.42,24.65,36.48,1.03,-21.98,-25.31,-53,562,-931,31.7,19.7,5.8,31.7,1.0,-31.0,5.73,2.27,-25.6,35.0
2012-08-11 01:12:00,0.0,1.8957,0.0011,380.15,0.30,352.7,26.7,137.95,36.42,24.65,36.48,1.01,-22.40,-25.32,-53,562,-931,31.7,19.7,5.8,31.7,1.0,-31.0,5.73,2.26,-25.6,35.0
2012-08-11 01:13:00,0.0,1.8957,0.0009,380.03,0.32,357.6,29.7,137.95,36.42,24.65,36.48,1.08,-22.78,-25.33,-53,562,-931,31.7,19.8,5.9,31.7,1.0,-30.9,5.73,2.29,-25.6,35.0
2012-08-11 01:14:00,0.0,1.8955,0.0010,380.04,0.36,353.7,23.6,137.95,36.43,24.65,36.48,1.10,-23.14,-25.34,-53,562,-931,31.7,19.9,5.9,31.7,1.0,-31.0,5.73,2.25,-25.6,35.0
2012-08-11 01:15:00,0.0,1.8960,0.0010,380.22,0.32,359.9,27.2,137.95,36.43,24.65,36.47,1.04,-23.48,-25.35,-53,562,-930,31.7,19.6,5.7,31.7,1.0,-31.0,5.73,2.28,-25.6,35.0
2012-08-11 01:16:00,0.0,1.8963,0.0011,380.07,0.33,355.9,27.5,137.95,36.43,24.65,36.48,1.00,-23.79,-25.35,-53,562,-931,31.8,19.8,5.8,31.7,1.0,-31.3,5.73,2.27,-25.6,35.0
2012-08-11 01:17:00,0.0,1.8963,0.0010,380.22,0.27,359.6,23.1,137.95,36.44,24.65,36.48,1.07,-24.09,-25.37,-53,562,-931,31.8,19.7,5.8,31.7,1.0,-31.3,5.73,2.26,-25.6,35.0
2012-08-11 01:18:00,0.0,1.8957,0.0007,379.94,0.37,355.8,26.6,137.95,36.44,24.65,36.48,1.11,-24.37,-25.37,-53,563,-930,31.8,20.0,6.1,31.7,1.0,-31.3,5.73,2.29,-25.6,35.1
2012-08-11 01:19:00,0.0,1.8963,0.0012,380.06,0.35,353.4,30.9,137.95,36.45,24.65,36.48,1.07,-24.63,-25.39,-53,562,-931,31.8,19.6,5.8,31.7,1.0,-31.3,5.73,2.25,-25.6,35.1
2012-08-11 01:20:00,0.0,1.8957,0.0009,380.16,0.33,358.4,31.0,137.95,36.45,24.65,36.47,1.01,-24.88,-25.39,-53,562,-930,31.8,19.5,5.7,31.7,1.0,-31.2,5.73,2.28,-25.6,35.1
2012-08-11 01:21:00,0.0,1.8960,0.0009,379.99,0.31,351.4,27.8,137.95,36.45,24.65,36.47,1.03,-25.11,-25.40,-53,563,-931,31.8,20.0,6.1,31.7,1.0,-31.3,5.73,2.28,-25.6,35.1
2012-08-11 01:22:00,0.0,1.8964,0.0010,379.88,0.35,358.8,27.3,137.95,36.46,24.65,36.48,1.08,-25.33,-25.41,-53,563,-931,31.8,20.0,6.0,31.8,1.0,-31.2,5.73,2.25,-25.6,35.1
2012-08-11 01:23:00,0.0,1.8964,0.0010,379.85,0.32,351.2,27.6,137.95,36.46,24.65,36.48,1.09,-25.13,-25.42,-53,563,-930,31.8,20.0,6.1,31.8,1.0,-31.3,5.73,2.29,-25.6,35.0
2012-08-11 01:24:00,0.0,1.8971,0.0010,379.86,0.32,355.1,26.2,137.95,36.47,24.65,36.48,1.04,-25.12,-25.42,-53,563,-931,31.8,19.9,6.0,31.8,1.0,-31.3,5.73,2.25,-25.6,35.1
2012-08-11 01:25:00,0.0,1.8970,0.0010,380.28,0.33,359.6,27.5,137.94,36.47,24.65,36.48,1.00,-25.30,-25.44,-53,563,-931,31.8,19.1,5.4,31.8,1.0,-31.2,5.73,2.28,-25.6,35.1
2012-08-11 01:26:00,0.0,1.8973,0.0012,380.33,0.30,356.7,29.8,137.95,36.47,24.65,36.48,0.99,-25.28,-25.44,-53,563,-931,31.8,19.4,5.6,31.8,1.0,-31.3,5.73,2.27,-25.6,35.1
2012-08-11 01:27:00,0.0,1.8972,0.0010,380.38,0.31,357.4,29.8,137.95,36.48,24.65,36.48,1.11,-25.11,-25.45,-53,563,-931,31.8,19.2,5.4,31.8,1.0,-31.3,5.73,2.26,-25.6,35.1
2012-08-11 01:28:00,0.0,1.8972,0.0010,380.25,0.33,350.8,28.5,137.95,36.49,24.65,36.48,1.07,-25.26,-25.46,-53,563,-931,31.8,19.6,5.8,31.8,1.0,-31.3,5.73,2.29,-25.6,35.1
2012-08-11 01:29:00,0.0,1.8966,0.0009,380.00,0.33,354.8,30.6,137.95,36.49,24.65,36.48,0.96,-25.40,-25.47,-53,563,-931,31.8,19.9,6.0,31.8,1.0,-31.2,5.73,2.25,-25.6,35.1
2012-08-11 01:30:00,0.0,1.8969,0.0008,379.86,0.32,354.7,28.9,137.95,36.50,24.65,36.48,1.03,-25.13,-25.48,-53,563,-931,31.8,20.1,6.1,31.8,1.0,-31.2,5.73,2.28,-25.6,35.1
2012-08-11 01:31:00,0.0,1.8965,0.0010,380.01,0.41,356.2,26.4,137.94,36.50,24.65,36.48,1.05,-25.23,-25.49,-53,563,-931,31.8,19.8,5.9,31.8,1.0,-31.2,5.73,2.27,-25.6,35.1
2012-08-11 01:32:00,0.0,1.8965,0.0011,380.00,0.36,353.3,29.4,137.95,36.50,24.65,36.48,1.09,-25.42,-25.50,-53,563,-931,31.9,19.6,5.8,31.8,1.0,-31.3,5.73,2.26,-25.6,35.1
2012-08-11 01:33:00,0.0,1.8977,0.0013,380.30,0.34,360.6,30.3,137.95,36.51,24.65,36.48,1.03,-25.25,-25.50,-54,563,-930,31.9,19.6,5.8,31.8,1.0,-31.2,5.73,2.28,-25.6,35.1
2012-08-11 01:34:00,0.0,1.8977,0.0009,380.31,0.31,359.2,29.6,137.94,36.53,24.65,36.48,1.03,-25.20,-25.51,-53,563,-931,31.9,19.3,5.6,31.8,0.9,-31.5,5.73,2.25,-25.6,35.1
2012-08-11 01:35:00,0.0,1.8970,0.0011,380.16,0.32,354.3,28.2,137.95,36.53,24.65,36.48,1.00,-25.37,-25.52,-53,563,-930,31.9,19.4,5.6,31.8,0.9,-31.5,5.73,2.28,-25.6,35.1
2012-08-11 01:36:00,0.0,1.8969,0.0010,380.22,0.32,358.1,26.5,137.95,36.53,24.65,36.48,0.95,-25.39,-25.49,-53,563,-931,31.9,19.6,5.8,31.8,1.0,-31.2,5.73,2.26,-25.6,35.2
2012-08-11 01:37:00,0.0,1.8968,0.0009,380.12,0.37,360.9,28.2,137.94,36.54,24.65,36.48,0.94,-25.19,-24.50,-53,563,-930,31.9,19.7,5.9,31.8,1.0,-31.0,5.73,2.27,-25.6,35.1
2012-08-11 01:38:00,0.0,1.8973,0.0009,380.12,0.31,360.2,30.5,137.95,36.54,24.65,36.47,0.95,-25.30,-22.65,-54,563,-931,31.9,19.7,5.9,31.8,1.1,-29.8,5.73,2.28,-25.6,35.1
2012-08-11 01:39:00,0.0,1.8968,0.0010,380.30,0.32,357.1,28.7,137.95,36.54,24.65,36.48,0.95,-25.40,-20.68,-53,563,-930,31.9,19.5,5.8,31.8,1.2,-28.8,5.73,2.26,-25.6,35.2
2012-08-11 01:40:00,0.0,1.8971,0.0009,380.12,0.34,361.3,25.2,137.94,36.54,24.65,36.47,0.96,-25.46,-18.75,-53,563,-931,31.9,20.1,6.2,31.8,1.3,-28.3,5.73,2.29,-25.6,35.2
2012-08-11 01:41:00,0.0,1.8978,0.0010,380.02,0.33,361.2,30.5,137.95,36.55,24.65,36.48,0.96,-25.50,-16.92,-54,563,-931,31.9,20.1,6.2,31.8,1.3,-28.1,5.73,2.25,-25.6,35.2
2012-08-11 01:42:00,0.0,1.8968,0.0009,380.15,0.33,364.7,29.6,137.95,36.55,24.66,36.48,0.93,-25.52,-15.17,-53,563,-931,31.9,20.0,6.2,31.8,1.3,-28.2,5.73,2.28,-25.6,35.2
2012-08-11 01:43:00,0.0,1.8980,0.0012,380.30,0.37,358.3,25.6,137.94,36.56,24.65,36.47,0.91,-25.54,-13.52,-53,563,-931,31.9,19.5,5.8,31.8,1.2,-28.4,5.73,2.27,-25.6,35.2
2012-08-11 01:44:00,0.0,1.8978,0.0010,380.37,0.36,361.6,27.8,137.94,36.56,24.65,36.48,0.90,-25.55,-11.95,-54,563,-931,31.9,19.5,5.8,31.8,1.2,-28.5,5.73,2.26,-25.6,35.2
2012-08-11 01:45:00,0.0,1.8980,0.0009,380.01,0.35,356.8,29.5,137.95,36.57,24.65,36.48,0.88,-25.56,-10.47,-53,563,-931,31.9,20.3,6.4,31.8,1.2,-28.7,5.73,2.29,-25.6,35.2
2012-08-11 01:46:00,0.0,1.8984,0.0012,380.03,0.32,359.6,27.8,137.94,36.57,24.65,36.47,0.91,-25.57,-9.07,-53,563,-931,31.9,19.9,6.1,31.8,1.2,-29.0,5.73,2.25,-25.6,35.2
2012-08-11 01:47:00,0.0,1.8971,0.0010,380.09,0.35,358.2,26.5,137.94,36.58,24.65,36.48,0.92,-25.57,-7.73,-54,563,-931,32.0,19.6,5.9,31.8,1.2,-29.0,5.73,2.29,-25.6,35.2
2012-08-11 01:48:00,0.0,1.8971,0.0010,380.13,0.34,363.0,26.0,137.94,36.58,24.65,36.48,0.93,-25.57,-6.47,-53,563,-931,32.0,19.8,6.0,31.9,1.2,-29.2,5.73,2.26,-25.6,35.2
2012-08-11 01:49:00,0.0,1.8977,0.0011,380.09,0.35,370.4,31.3,137.94,36.59,24.65,36.47,0.95,-25.57,-5.27,-53,563,-931,32.0,19.8,6.0,31.9,1.1,-29.3,5.73,2.27,-25.5,35.2
2012-08-11 01:50:00,0.0,1.8976,0.0011,380.23,0.31,359.0,31.2,137.94,36.59,24.65,36.48,0.94,-25.57,-4.13,-54,563,-931,32.0,19.5,5.8,31.9,1.1,-29.5,5.73,2.28,-25.5,35.2
2012-08-11 01:51:00,0.0,1.8974,0.0009,380.16,0.36,360.4,29.2,137.95,36.59,24.65,36.47,0.94,-25.58,-3.04,-53,563,-931,32.0,19.8,6.0,31.9,1.1,-29.8,5.73,2.26,-25.5,35.2
2012-08-11 01:52:00,0.0,1.8973,0.0012,380.32,0.32,367.9,26.7,137.94,36.60,24.65,36.48,0.96,-25.57,-2.01,-53,563,-931,32.0,19.7,5.9,31.9,1.1,-29.8,5.73,2.30,-25.5,35.2
2012-08-11 01:53:00,0.0,1.8973,0.0010,380.13,0.28,364.1,31.6,137.94,36.60,24.65,36.48,0.96,-25.57,-1.03,-53,563,-931,32.0,19.7,6.0,31.9,1.1,-29.9,5.73,2.26,-25.5,35.2
2012-08-11 01:54:00,0.0,1.8979,0.0009,380.04,0.34,364.8,29.2,137.94,36.61,24.65,36.47,0.96,-25.56,-0.10,-53,563,-931,32.0,20.1,6.3,31.9,1.1,-30.1,5.73,2.29,-25.4,35.2
2012-08-11 01:55:00,0.0,1.8985,0.0011,379.87,0.38,364.6,27.1,137.94,36.61,24.65,36.47,0.96,-25.56,0.77,-53,563,-931,32.0,20.3,6.5,31.9,1.1,-30.1,5.73,2.28,-25.4,35.2
2012-08-11 01:56:00,0.0,1.8992,0.0012,379.81,0.36,366.7,22.1,137.94,36.61,24.65,36.48,0.96,-25.56,1.60,-53,563,-931,32.0,20.0,6.2,31.9,1.1,-30.1,5.73,2.27,-25.4,35.2
2012-08-11 01:57:00,0.0,1.9012,0.0013,379.57,0.37,376.3,25.6,137.94,36.62,24.65,36.48,0.96,-25.56,2.37,-53,563,-931,32.0,20.4,6.5,31.9,1.0,-30.3,5.73,2.30,-25.4,35.2
2012-08-11 01:58:00,0.0,1.9018,0.0011,379.59,0.29,374.6,31.8,137.94,36.62,24.65,36.48,0.95,-25.55,3.00,-54,563,-931,32.0,20.3,6.5,31.9,1.0,-30.3,5.73,2.26,-25.4,35.3
2012-08-11 01:59:00,0.0,1.8989,0.0010,379.96,0.41,374.2,29.8,137.95,36.63,24.65,36.48,0.95,-25.54,3.31,-53,563,-931,32.0,20.2,6.4,31.9,1.0,-30.3,5.73,2.30,-25.4,35.3
2012-08-11 02:00:00,0.0,1.8983,0.0013,379.94,0.30,381.5,29.8,137.94,36.63,24.65,36.48,0.96,-25.53,3.52,-53,563,-931,32.0,19.9,6.2,31.9,1.0,-30.5,5.73,2.27,-25.4,35.3
2012-08-11 02:01:00,0.0,1.8983,0.0010,380.13,0.38,367.0,28.8,137.94,36.64,24.65,36.47,0.95,-25.52,3.89,-54,563,-931,32.0,19.6,5.9,31.9,1.0,-30.6,5.73,2.29,-25.4,35.3
2012-08-11 02:02:00,0.0,1.8979,0.0011,380.26,0.34,372.1,29.1,137.94,36.64,24.65,36.48,0.94,-25.52,4.42,-53,563,-931,32.0,19.5,5.9,32.0,1.0,-30.6,5.73,2.28,-25.3,35.3
2012-08-11 02:03:00,0.0,1.8989,0.0010,380.23,0.36,375.1,30.4,137.94,36.64,24.65,36.47,0.95,-25.50,5.05,-54,564,-931,32.0,19.9,6.1,32.0,1.0,-30.6,5.73,2.27,-25.3,35.3
2012-08-11 02:04:00,0.0,1.8988,0.0012,379.97,0.39,374.2,25.1,137.94,36.65,24.65,36.48,0.95,-25.50,5.64,-54,563,-931,32.1,19.7,6.0,32.0,1.0,-30.6,5.73,2.30,-25.3,35.4
2012-08-11 02:05:00,0.0,1.8997,0.0010,380.48,0.32,378.6,27.5,137.94,36.65,24.65,36.47,0.94,-25.49,6.19,-54,564,-931,32.1,19.1,5.6,32.0,1.0,-30.5,5.73,2.26,-25.3,35.4
2012-08-11 02:06:00,0.0,1.8992,0.0012,380.58,0.36,374.1,27.0,137.94,36.65,24.65,36.47,0.94,-25.48,6.73,-54,564,-931,32.1,19.0,5.5,32.0,1.0,-30.6,5.73,2.30,-25.3,35.5
2012-08-11 02:07:00,0.0,1.8984,0.0011,380.42,0.34,378.7,26.3,137.94,36.66,24.65,36.47,0.96,-25.47,7.24,-54,564,-931,32.1,19.4,5.8,32.0,1.0,-30.5,5.73,2.27,-25.3,35.5
2012-08-11 02:08:00,0.0,1.8992,0.0011,380.01,0.31,377.7,29.5,137.94,36.67,24.65,36.48,1.14,-43.42,-14.00,-54,564,-931,32.1,19.9,6.2,32.0,1.0,-30.6,5.42,2.35,-29.6,35.5
2012-08-11 02:09:00,0.0,1.8999,0.0010,379.81,0.37,375.9,27.2,137.94,36.67,24.65,36.48,0.95,-25.45,8.18,-54,564,-931,32.1,20.3,6.5,32.0,1.0,-30.5,5.73,2.29,-25.3,35.5
2012-08-11 02:10:00,0.0,1.9005,0.0012,379.94,0.36,382.0,28.3,137.94,36.67,24.65,36.47,0.96,-25.44,8.63,-54,564,-931,32.1,19.9,6.2,32.0,1.0,-30.5,5.73,2.26,-25.2,35.5
2012-08-11 02:11:00,0.0,1.8983,0.0009,380.25,0.34,377.9,32.1,137.94,36.68,24.65,36.48,0.95,-25.44,9.05,-54,564,-931,32.1,19.6,6.1,32.0,1.0,-30.6,5.73,2.30,-25.2,35.5
2012-08-11 02:12:00,0.0,1.8984,0.0009,380.29,0.35,375.6,30.8,137.94,36.68,24.65,36.48,0.95,-25.43,9.47,-54,564,-931,32.1,19.4,5.8,32.0,1.0,-30.6,5.73,2.26,-25.3,35.5
2012-08-11 02:13:00,0.0,1.8990,0.0015,380.06,0.37,378.0,24.8,137.94,36.69,24.65,36.48,0.95,-25.42,9.88,-53,564,-931,32.1,19.9,6.3,32.1,1.0,-30.6,5.73,2.30,-25.3,35.5
2012-08-11 02:14:00,0.0,1.8993,0.0014,380.03,0.33,384.2,28.5,137.94,36.70,24.65,36.47,0.96,-25.41,10.27,-54,564,-931,32.1,19.7,6.1,32.1,1.0,-30.5,5.73,2.26,-25.3,35.6
2012-08-11 02:15:00,0.0,1.9005,0.0013,379.78,0.38,381.0,29.6,137.94,36.70,24.65,36.48,0.96,-25.41,10.66,-54,564,-931,32.1,20.1,6.4,32.1,1.0,-30.7,5.73,2.28,-25.2,35.6
2012-08-11 02:16:00,0.0,1.8989,0.0011,380.09,0.39,385.5,34.8,137.94,36.71,24.65,36.47,0.96,-25.40,11.02,-54,564,-931,32.1,19.6,6.0,32.1,1.0,-30.9,5.73,2.28,-25.2,35.6
2012-08-11 02:17:00,0.0,1.8990,0.0010,380.10,0.34,379.4,28.4,137.94,36.71,24.65,36.48,0.96,-25.39,11.37,-54,564,-931,32.1,19.8,6.2,32.1,1.0,-30.8,5.73,2.26,-25.2,35.6
2012-08-11 02:18:00,0.0,1.8995,0.0008,379.81,0.33,385.1,29.4,137.94,36.71,24.65,36.47,0.97,-25.39,11.72,-54,564,-931,32.2,20.4,6.6,32.1,1.0,-30.8,5.73,2.29,-25.2,35.5
2012-08-11 02:19:00,0.0,1.9002,0.0010,379.97,0.39,377.8,32.7,137.94,36.72,24.65,36.47,0.98,-25.38,12.06,-54,564,-931,32.2,20.2,6.5,32.1,1.0,-30.8,5.73,2.25,-25.2,35.5
2012-08-11 02:20:00,0.0,1.9014,0.0010,379.90,0.32,376.3,29.8,137.94,36.72,24.65,36.47,0.96,-25.37,12.39,-54,564,-931,32.2,19.9,6.3,32.1,1.0,-30.8,5.73,2.30,-25.3,35.6